Weather History for KWVI - September, 2013

Change the Weather History Date:

Thursday, September 12, 2013

  Actual Average Record
Temperature  
Mean Temperature 65 °F 64 °F  
Max Temperature 74 °F 76 °F 91 °F (2006)
Min Temperature 56 °F 52 °F 44 °F (2005)
Degree Days  
Heating Degree Days 0    
Month to date heating degree days 6  
Since 1 July heating degree days 151  
Cooling Degree Days 0    
Month to date cooling degree days 34  
Year to date cooling degree days 103  
Growing Degree Days 14 (Base 50)    
Moisture  
Dew Point 56 °F    
Average Humidity 77    
Maximum Humidity 93    
Minimum Humidity 61    
Precipitation  
Precipitation 0.00 in - - ()
Month to date precipitation 0.01  
Year to date precipitation 2.47  
Since 1 July precipitation 0.08  
Sea Level Pressure  
Sea Level Pressure 29.96 in    
Wind  
Wind Speed 4 mph (SE)    
Max Wind Speed 13 mph    
Max Gust Speed 16 mph    
Visibility 10 miles    
Events      
T = Trace of Precipitation, MM = Missing Value Source: NWS Daily Summary

Daily Weather History Graph

Daily Weather History Graph

Search for Another Location

Airport or City:

Trip Planner

Search our weather history database for the weather conditions in past years. The results will help you decide how hot, cold, wet, or windy it might be!

Date:

Astronomy

Sep. 12, 2013 Rise Set
Actual Time 6:47 AM PDT 7:18 PM PDT
Civil Twilight 6:21 AM PDT 7:44 PM PDT
Nautical Twilight 5:50 AM PDT 8:15 PM PDT
Astronomical Twilight 5:18 AM PDT 8:46 PM PDT
Moon 2:10 PM PDT (9/12) No Moon Set
Length of Visible Light 13h 23m
Length of Day
12h 31m
Waxing Crescent, 51% of the Moon is Illuminated
Sep 12
Waxing Crescent
Sep 19
Full
Sep 26
Last Quarter
Oct 4
New
Oct 11
First Quarter

Hourly Weather History & Observations

Time (PDT) Temp. Dew Point Humidity Pressure Visibility Wind Dir Wind Speed Gust Speed Precip Events Conditions
12:40 AM 55.4 °F 51.8 °F 88% 29.98 in 10.0 mi Calm Calm - N/A   Partly Cloudy
12:53 AM 55.9 °F 52.0 °F 87% 29.98 in 10.0 mi WNW 3.5 mph - N/A   Partly Cloudy
1:53 AM 55.9 °F 53.1 °F 90% 29.98 in 10.0 mi Calm Calm - N/A   Clear
2:25 AM 57.2 °F 53.6 °F 88% 29.98 in 10.0 mi Calm Calm - N/A   Mostly Cloudy
2:53 AM 57.0 °F 54.0 °F 89% 29.97 in 10.0 mi WNW 3.5 mph - N/A   Overcast
3:22 AM 57.2 °F 55.4 °F 94% 29.97 in 10.0 mi Calm Calm - N/A   Overcast
3:53 AM 57.9 °F 55.0 °F 90% 29.97 in 10.0 mi Calm Calm - N/A   Overcast
4:53 AM 59.0 °F 55.0 °F 87% 29.97 in 10.0 mi Calm Calm - N/A   Overcast
5:53 AM 60.1 °F 55.0 °F 83% 29.97 in 10.0 mi Calm Calm - N/A   Overcast
6:53 AM 60.1 °F 55.9 °F 86% 29.97 in 10.0 mi Calm Calm - N/A   Overcast
7:20 AM 60.8 °F 55.4 °F 82% 29.98 in 10.0 mi Calm Calm - N/A   Overcast
7:53 AM 61.0 °F 55.9 °F 83% 29.99 in 10.0 mi Calm Calm - N/A   Overcast
8:20 AM 60.8 °F 55.4 °F 82% 29.98 in 10.0 mi Calm Calm - N/A   Overcast
8:53 AM 62.1 °F 55.9 °F 80% 29.99 in 10.0 mi Calm Calm - N/A   Overcast
9:53 AM 64.0 °F 55.9 °F 75% 29.99 in 10.0 mi Calm Calm - N/A   Overcast
10:39 AM 66.2 °F 55.4 °F 68% 29.99 in 10.0 mi WSW 3.5 mph - N/A   Overcast
10:53 AM 66.9 °F 55.9 °F 68% 29.99 in 10.0 mi Calm Calm - N/A   Overcast
11:14 AM 69.8 °F 57.2 °F 64% 29.98 in 10.0 mi Variable 4.6 mph - N/A   Scattered Clouds
11:53 AM 71.1 °F 57.0 °F 61% 29.97 in 10.0 mi WSW 5.8 mph - N/A   Clear
12:53 PM 72.0 °F 57.0 °F 59% 29.95 in 10.0 mi SSW 8.1 mph - N/A   Clear
1:53 PM 71.1 °F 57.0 °F 61% 29.94 in 10.0 mi WSW 11.5 mph - N/A   Clear
2:53 PM 71.1 °F 57.0 °F 61% 29.93 in 10.0 mi SSW 6.9 mph - N/A   Clear
3:53 PM 70.0 °F 57.0 °F 63% 29.93 in 10.0 mi SW 10.4 mph - N/A   Clear
4:53 PM 69.1 °F 57.0 °F 65% 29.91 in 10.0 mi SSE 8.1 mph - N/A   Clear
5:53 PM 66.9 °F 57.0 °F 70% 29.91 in 10.0 mi SE 6.9 mph - N/A   Clear
6:53 PM 62.1 °F 57.0 °F 84% 29.92 in 10.0 mi ESE 6.9 mph - N/A   Clear
7:33 PM 60.8 °F 55.4 °F 82% 29.92 in 10.0 mi East 8.1 mph - N/A   Partly Cloudy
7:53 PM 60.1 °F 57.0 °F 90% 29.92 in 10.0 mi East 8.1 mph - N/A   Partly Cloudy
8:12 PM 60.8 °F 57.2 °F 88% 29.92 in 10.0 mi East 6.9 mph - N/A   Mostly Cloudy
8:53 PM 60.1 °F 57.0 °F 90% 29.93 in 10.0 mi East 5.8 mph - N/A   Overcast
9:50 PM 60.8 °F 57.2 °F 88% 29.94 in 10.0 mi NE 3.5 mph - N/A   Overcast
9:53 PM 60.1 °F 57.0 °F 90% 29.94 in 10.0 mi NNE 3.5 mph - N/A   Overcast
10:53 PM 60.1 °F 57.0 °F 90% 29.94 in 10.0 mi NE 3.5 mph - N/A   Overcast
11:53 PM 59.0 °F 55.9 °F 90% 29.93 in 9.0 mi Calm Calm - N/A   Overcast